This is the latest recevied weather packets stored in our database for station/object N0HOT. If no packets are shown the sender has not sent any weather packets the latest 10 day(s).
| Time | Temp. | Humidity | Pressure | Rain* | Wind** | Luminosity | Snow |
|---|---|---|---|---|---|---|---|
| 1777775084 | 14.44° C | 32% | 1012.2 hPa | 0 mm | - | 0 W/m² | - |
| 1777774780 | 14.44° C | 31% | 1012.2 hPa | 0 mm | - | 0 W/m² | - |
| 1777774476 | 14.44° C | 32% | 1012.2 hPa | 0 mm | - | 0 W/m² | - |
| 1777774174 | 15° C | 32% | 1012.2 hPa | 0 mm | - | 0 W/m² | - |
| 1777773265 | 15° C | 31% | 1012.2 hPa | 0 mm | - | 0 W/m² | - |
| 1777771750 | 15.56° C | 29% | 1011.8 hPa | 0 mm | - | 0 W/m² | - |
| 1777769325 | 16.67° C | 28% | 1012.2 hPa | 0 mm | - | 6 W/m² | - |
| 1777769023 | 16.67° C | 27% | 1012.2 hPa | 0 mm | - | 10 W/m² | - |
| 1777767811 | 16.67° C | 26% | 1012.2 hPa | 0 mm | - | 26 W/m² | - |
| 1777767507 | 17.22° C | 26% | 1012.2 hPa | 0 mm | - | 35 W/m² | - |
| 1777766901 | 17.22° C | 26% | 1012.2 hPa | 0 mm | - | 44 W/m² | - |
| 1777765689 | 17.22° C | 24% | 1012.2 hPa | 0 mm | - | 76 W/m² | - |
| 1777765386 | 17.22° C | 25% | 1012.2 hPa | 0 mm | - | 84 W/m² | - |
| 1777764779 | 17.78° C | 25% | 1012.5 hPa | 0 mm | - | 66 W/m² | - |
| 1777763265 | 18.33° C | 24% | 1012.5 hPa | 0 mm | - | 104 W/m² | - |
| 1777761446 | 18.89° C | 21% | 1012.5 hPa | 0 mm | - | 98 W/m² | - |
| 1777760538 | 18.33° C | 22% | 1012.8 hPa | 0 mm | - | 254 W/m² | - |
| 1777760234 | 18.89° C | 22% | 1012.8 hPa | 0 mm | - | 314 W/m² | - |
| 1777759021 | 18.89° C | 21% | 1013.2 hPa | 0 mm | - | 320 W/m² | - |
| 1777758415 | 18.89° C | 22% | 1013.6 hPa | 0 mm | - | 531 W/m² | - |
| 1777757809 | 18.89° C | 22% | 1013.6 hPa | 0 mm | - | 500 W/m² | - |
| 1777757205 | 18.89° C | 20% | 1013.6 hPa | 0 mm | - | 490 W/m² | - |
| 1777756903 | 18.89° C | 20% | 1013.6 hPa | 0 mm | - | 552 W/m² | - |
| 1777756598 | 18.89° C | 21% | 1013.9 hPa | 0 mm | - | 571 W/m² | - |
| 1777756295 | 18.89° C | 19% | 1013.9 hPa | 0 mm | - | 563 W/m² | - |
* Rain latest hour (hover to see other rain measurements)
** Current wind speed in m/s (hover to see current wind gust speed)